• In Moldova, Republic
  • List of Countries
  • For 7 days
  • Water Temperature
  • Satellite Maps
  • Weather Map
  • Weather Widgets
  • user-avatar
    Login

    Hourly Weather Canberra

    Today, 20 November, Monday

    Time Temperature Precipitation Wind Pressure Humidity
    00:00 +14°C° 0 mm 2 mps 715 mmHg 93%
    01:00 +14°C° 0 mm 1 mps 715 mmHg 92%
    02:00 +13°C° 0 mm 1 mps 715 mmHg 93%
    03:00 +12°C° 0 mm 1 mps 715 mmHg 94%
    04:00 +11°C° 0 mm 1 mps 714 mmHg 93%
    05:00 +13°C° 0 mm 1 mps 715 mmHg 87%
    06:00 +14°C° 0 mm 2 mps 715 mmHg 81%
    07:00 +15°C° 0 mm 2 mps 716 mmHg 74%
    08:00 +17°C° 0 mm 2 mps 716 mmHg 66%
    09:00 +19°C° 0 mm 3 mps 716 mmHg 57%
    10:00 +22°C° 0 mm 3 mps 716 mmHg 48%
    11:00 +24°C° 0 mm 3 mps 716 mmHg 45%
    12:00 +25°C° 0 mm 3 mps 716 mmHg 42%
    13:00 +26°C° 0 mm 3 mps 715 mmHg 39%
    14:00 +26°C° 0 mm 3 mps 715 mmHg 41%
    15:00 +26°C° 0 mm 3 mps 715 mmHg 43%
    16:00 +25°C° 0 mm 3 mps 714 mmHg 44%
    17:00 +22°C° 0 mm 3 mps 714 mmHg 54%
    18:00 +20°C° 0 mm 3 mps 714 mmHg 65%
    19:00 +17°C° 0 mm 3 mps 714 mmHg 76%
    20:00 +16°C° 0 mm 2 mps 715 mmHg 82%
    21:00 +15°C° 0 mm 2 mps 715 mmHg 89%
    22:00 +13°C° 0 mm 1 mps 715 mmHg 96%
    23:00 +13°C° 0 mm 1 mps 714 mmHg 95%

    Tomorrow, 21 November, Tuesday

    Time Temperature Precipitation Wind Pressure Humidity
    00:00 +13°C° 0 mm 1 mps 714 mmHg 94%
    01:00 +13°C° 0 mm 2 mps 714 mmHg 94%
    02:00 +12°C° 0 mm 2 mps 714 mmHg 94%
    03:00 +12°C° 0 mm 1 mps 714 mmHg 94%
    04:00 +11°C° 0 mm 1 mps 714 mmHg 94%
    05:00 +13°C° 0 mm 1 mps 714 mmHg 87%
    06:00 +14°C° 0 mm 1 mps 715 mmHg 80%
    07:00 +16°C° 0 mm 1 mps 715 mmHg 73%
    08:00 +18°C° 0 mm 2 mps 715 mmHg 61%
    09:00 +20°C° 0 mm 2 mps 715 mmHg 50%
    10:00 +24°C° 0 mm 2 mps 715 mmHg 39%
    11:00 +25°C° 0 mm 2 mps 715 mmHg 36%
    12:00 +26°C° 0 mm 3 mps 715 mmHg 33%
    13:00 +27°C° 0 mm 3 mps 714 mmHg 30%
    14:00 +26°C° 0 mm 3 mps 714 mmHg 32%
    15:00 +26°C° 0 mm 3 mps 713 mmHg 34%
    16:00 +26°C° 0 mm 4 mps 713 mmHg 36%
    17:00 +22°C° 0 mm 3 mps 713 mmHg 47%
    18:00 +20°C° 0 mm 3 mps 713 mmHg 57%
    19:00 +17°C° 0 mm 3 mps 713 mmHg 67%
    20:00 +15°C° 0 mm 2 mps 713 mmHg 76%
    21:00 +14°C° 0 mm 2 mps 713 mmHg 84%
    22:00 +12°C° 0 mm 2 mps 713 mmHg 93%
    23:00 +12°C° 0 mm 2 mps 713 mmHg 94%

    Day after tomorrow, 22 November, Wednesday

    Time Temperature Precipitation Wind Pressure Humidity
    00:00 +11°C° 0 mm 1 mps 712 mmHg 95%
    01:00 +10°C° 0 mm 1 mps 712 mmHg 96%
    02:00 +10°C° 0 mm 1 mps 712 mmHg 96%
    03:00 +10°C° 0 mm 1 mps 712 mmHg 96%
    04:00 +10°C° 0 mm 1 mps 712 mmHg 96%
    05:00 +11°C° 0 mm 1 mps 712 mmHg 90%
    06:00 +13°C° 0 mm 1 mps 712 mmHg 83%
    07:00 +15°C° 0 mm 1 mps 713 mmHg 76%
    08:00 +18°C° 0 mm 2 mps 713 mmHg 64%
    09:00 +20°C° 0 mm 2 mps 713 mmHg 51%
    10:00 +23°C° 0 mm 2 mps 713 mmHg 39%
    11:00 +24°C° 0 mm 2 mps 712 mmHg 35%
    12:00 +26°C° 0 mm 2 mps 712 mmHg 31%
    13:00 +27°C° 0 mm 2 mps 711 mmHg 28%
    14:00 +26°C° 0 mm 2 mps 711 mmHg 30%
    15:00 +26°C° 0 mm 2 mps 710 mmHg 33%
    16:00 +26°C° 0 mm 2 mps 710 mmHg 35%
    17:00 +22°C° 0.1 mm 3 mps 710 mmHg 47%
    18:00 +20°C° 0.1 mm 3 mps 710 mmHg 59%
    19:00 +17°C° 0.1 mm 3 mps 710 mmHg 71%
    20:00 +16°C° 0 mm 2 mps 710 mmHg 79%
    21:00 +15°C° 0 mm 2 mps 710 mmHg 86%
    22:00 +13°C° 0 mm 1 mps 710 mmHg 94%
    23:00 +13°C° 0 mm 1 mps 710 mmHg 95%

    23 November, Thursday

    Time Temperature Precipitation Wind Pressure Humidity
    00:00 +12°C° 0 mm 1 mps 710 mmHg 96%
    01:00 +12°C° 0 mm 1 mps 709 mmHg 97%
    02:00 +11°C° 0 mm 1 mps 709 mmHg 97%
    03:00 +11°C° 0 mm 1 mps 709 mmHg 97%
    04:00 +11°C° 0 mm 1 mps 709 mmHg 97%
    05:00 +13°C° 0 mm 1 mps 709 mmHg 89%
    06:00 +15°C° 0 mm 1 mps 709 mmHg 82%
    07:00 +16°C° 0 mm 1 mps 710 mmHg 75%
    08:00 +20°C° 0 mm 1 mps 710 mmHg 64%
    09:00 +21°C° 0 mm 2 mps 710 mmHg 53%
    10:00 +25°C° 0 mm 2 mps 710 mmHg 42%
    11:00 +25°C° 0.1 mm 2 mps 710 mmHg 42%
    12:00 +26°C° 0.1 mm 2 mps 709 mmHg 41%
    13:00 +26°C° 0.1 mm 2 mps 709 mmHg 40%
    14:00 +25°C° 0.2 mm 2 mps 709 mmHg 46%
    15:00 +24°C° 0.2 mm 2 mps 708 mmHg 51%
    16:00 +23°C° 0.2 mm 2 mps 708 mmHg 56%
    17:00 +22°C° 0.1 mm 1 mps 708 mmHg 61%
    18:00 +20°C° 0.1 mm 1 mps 708 mmHg 66%
    19:00 +17°C° 0.1 mm 0 mps 708 mmHg 70%
    20:00 +18°C° 0.1 mm 1 mps 708 mmHg 74%
    21:00 +16°C° 0.1 mm 1 mps 708 mmHg 78%
    22:00 +15°C° 0.1 mm 1 mps 709 mmHg 81%
    23:00 +15°C° 0 mm 1 mps 708 mmHg 82%

    24 November, Friday

    Time Temperature Precipitation Wind Pressure Humidity
    00:00 +15°C° 0 mm 1 mps 708 mmHg 84%
    01:00 +14°C° 0 mm 1 mps 708 mmHg 85%
    02:00 +14°C° 0 mm 1 mps 708 mmHg 85%
    03:00 +14°C° 0 mm 1 mps 708 mmHg 85%
    04:00 +14°C° 0 mm 1 mps 708 mmHg 85%
    05:00 +16°C° 0 mm 1 mps 708 mmHg 77%
    06:00 +19°C° 0 mm 1 mps 709 mmHg 70%
    07:00 +21°C° 0 mm 1 mps 709 mmHg 62%
    08:00 +23°C° 0 mm 2 mps 709 mmHg 53%
    09:00 +26°C° 0 mm 3 mps 710 mmHg 44%
    10:00 +28°C° 0 mm 3 mps 710 mmHg 35%
    11:00 +28°C° 0 mm 3 mps 710 mmHg 35%
    12:00 +28°C° 0 mm 3 mps 709 mmHg 35%
    13:00 +28°C° 0 mm 3 mps 709 mmHg 35%
    14:00 +28°C° 0 mm 2 mps 709 mmHg 39%
    15:00 +27°C° 0 mm 2 mps 709 mmHg 43%
    16:00 +26°C° 0 mm 1 mps 708 mmHg 47%
    17:00 +24°C° 0.1 mm 1 mps 709 mmHg 54%
    18:00 +23°C° 0.1 mm 1 mps 709 mmHg 60%
    19:00 +21°C° 0.1 mm 1 mps 709 mmHg 67%
    20:00 +20°C° 0.8 mm 1 mps 709 mmHg 74%
    21:00 +18°C° 0.8 mm 1 mps 709 mmHg 82%
    22:00 +16°C° 0.8 mm 1 mps 710 mmHg 89%
    23:00 +16°C° 0.1 mm 1 mps 710 mmHg 89%

    25 November, Saturday

    Time Temperature Precipitation Wind Pressure Humidity
    00:00 +16°C° 0.1 mm 1 mps 709 mmHg 90%
    01:00 +16°C° 0.1 mm 1 mps 709 mmHg 90%
    02:00 +15°C° 0 mm 1 mps 709 mmHg 89%
    03:00 +15°C° 0 mm 1 mps 709 mmHg 87%
    04:00 +15°C° 0 mm 1 mps 709 mmHg 86%
    05:00 +18°C° 0 mm 1 mps 709 mmHg 79%
    06:00 +20°C° 0 mm 1 mps 710 mmHg 72%
    07:00 +20°C° 0 mm 0 mps 711 mmHg 66%
    08:00 +25°C° 0 mm 1 mps 711 mmHg 55%
    09:00 +27°C° 0 mm 1 mps 711 mmHg 44%
    10:00 +30°C° 0 mm 1 mps 711 mmHg 34%
    11:00 +30°C° 0 mm 1 mps 711 mmHg 34%
    12:00 +30°C° 0 mm 1 mps 710 mmHg 35%
    13:00 +30°C° 0 mm 1 mps 710 mmHg 35%
    14:00 +29°C° 0.3 mm 1 mps 710 mmHg 40%
    15:00 +27°C° 0.3 mm 2 mps 710 mmHg 46%
    16:00 +26°C° 0.3 mm 2 mps 709 mmHg 51%
    17:00 +24°C° 0.3 mm 3 mps 710 mmHg 59%
    18:00 +22°C° 0.3 mm 3 mps 710 mmHg 67%
    19:00 +20°C° 0.3 mm 3 mps 710 mmHg 76%
    20:00 +19°C° 0.3 mm 2 mps 710 mmHg 80%
    21:00 +18°C° 0.3 mm 2 mps 710 mmHg 85%
    22:00 +17°C° 0.3 mm 2 mps 710 mmHg 90%
    23:00 +18°C° 0.2 mm 1 mps 710 mmHg 90%
    Show more